User: anonymous   Login
Location: Deer Lake
(49.1830°N, 57.4330°W)
Time: 12:48:29
(UTC-02:-30)
Language:

Cosmos 1707 - Orbit

View from above orbital plane
View from above orbital plane
View from above satellite
View from above satellite

Ground track
Ground track

The orbit data is extracted from the following two-line orbital elements,

1 16326U 85113A   17112.81721016 +.00002058 +00000-0 +11401-3 0  9999
2 16326 082.5110 262.7276 0012037 128.7377 231.4932 15.13224359708696
Epoch (UTC): 22 April 2017 19:36:46
Eccentricity: 0.0012037
inclination: 82.5110°
perigee height: 518 km
apogee height: 534 km
right ascension of ascending node: 262.7276°
argument of perigee: 128.7377°
revolutions per day: 15.13224359
mean anomaly at epoch: 231.4932°
orbit number at epoch: 70869

The dashed part of the orbit path shows where the satellite is in the earth's shadow,  

DLR